CAPE
74 90 63 26 1 37 53 121 77 0 0 0 0 0 0 0 0 0 1 0 0 0 0 0 0 0 0 0 0 0 0 0 0 0 0 0 0 0 0 0 0 0 1
57 82 106 92 59 23 38 48 30 0 0 0 0 0 0 0 0 0 0 0 0 0 0 0 0 0 0 0 0 0 0 0 0 0 0 0 0 0 0 0 0 0 0
52 57 73 93 108 89 40 24 2 0 0 0 0 0 0 0 0 0 0 0 0 0 0 0 0 0 0 0 0 0 0 0 0 0 0 0 0 0 0 0 0 0 0
72 46 50 60 93 118 96 34 10 0 0 0 0 0 0 0 0 0 0 0 0 0 0 0 0 0 0 0 0 0 0 0 0 0 0 0 0 0 0 0 0 0 0
197 81 55 52 63 107 85 56 13 0 0 0 0 0 0 0 0 0 0 0 0 0 0 0 0 0 0 0 0 0 0 0 0 0 0 0 0 0 0 0 0 0 0
448 225 113 69 61 94 87 59 14 0 0 0 0 0 0 0 0 0 0 0 0 0 0 0 0 0 0 0 0 0 0 0 0 0 0 0 0 0 0 0 0 1 2
651 482 334 214 108 97 149 97 27 0 0 0 0 0 0 0 0 0 0 0 0 0 0 0 0 0 0 0 0 0 0 0 0 0 0 0 0 0 0 0 1 2 3
825 596 573 449 293 177 151 110 48 0 0 0 0 0 0 0 0 0 0 0 0 0 0 0 0 0 0 0 0 0 0 0 0 0 0 0 0 0 0 2 3 2 3
865 779 587 595 519 336 249 215 136 3 0 0 0 0 0 0 0 0 0 0 0 0 0 0 0 0 0 0 0 0 0 0 0 0 0 0 0 0 0 1 4 3 5
362 489 589 590 579 503 350 346 268 50 0 0 0 0 0 0 0 0 0 0 0 0 0 0 0 0 0 0 0 0 0 0 0 0 0 0 0 0 0 0 2 3 6
527 373 287 385 427 506 432 423 287 153 0 0 0 0 0 0 0 0 0 0 0 0 0 0 0 0 0 0 0 0 0 0 0 0 0 0 0 0 0 1 2 4 5
426 595 295 168 222 286 325 324 359 152 3 0 0 0 0 0 0 0 0 0 0 0 0 0 0 0 0 0 0 0 0 0 0 0 0 0 0 0 0 0 0 0 0
265 493 341 211 144 171 230 275 221 134 2 0 0 0 0 0 0 0 0 0 0 0 0 0 0 0 0 0 0 0 0 0 0 0 0 0 0 0 0 0 0 0 0
57 277 496 308 173 203 235 234 158 101 0 0 0 0 0 0 0 0 0 0 0 0 0 0 0 0 0 0 0 0 0 0 0 0 0 0 0 0 0 0 0 0 0
0 56 325 480 283 172 233 258 159 53 5 0 0 0 0 0 0 0 0 0 0 0 0 0 0 0 0 0 0 0 0 0 0 0 0 0 0 0 0 0 0 0 0
0 5 91 264 244 180 189 148 86 5 0 0 0 0 0 0 0 0 0 0 0 0 0 0 0 0 0 0 0 0 0 0 0 0 0 0 0 0 0 0 0 0 0
0 1 41 96 114 123 56 37 4 1 1 0 0 0 0 0 0 0 0 0 0 0 0 0 0 0 0 0 0 0 0 0 0 0 0 0 0 0 0 0 0 0 1
0 0 0 0 10 1 0 0 0 0 0 0 0 0 0 0 0 0 0 0 0 0 0 0 2 0 0 0 0 1 0 0 0 0 0 0 0 0 0 0 0 0 2
0 0 0 0 0 0 0 0 0 0 0 0 0 0 0 0 0 0 0 0 0 1 0 1 1 1 1 0 0 0 0 0 0 0 0 0 0 0 0 0 1 2 3
0 0 0 0 0 0 0 0 0 0 0 0 0 0 0 0 0 0 0 0 1 1 1 2 1 1 0 0 0 0 0 0 0 0 0 0 0 0 0 0 0 0 0
0 0 0 0 0 0 0 0 0 0 0 0 0 0 0 1 1 1 1 2 1 1 1 1 0 0 0 0 0 0 0 0 0 0 0 0 0 0 0 0 0 0 0
1 1 1 1 1 2 4 2 0 0 0 1 1 1 1 0 2 2 1 1 0 0 0 0 0 0 0 0 0 0 0 0 0 0 0 0 0 0 0 0 0 0 0
1 2 1 1 2 4 4 4 4 1 1 1 2 1 1 1 0 0 0 0 0 0 0 0 0 0 0 0 0 0 0 0 0 0 0 0 0 0 0 0 0 0 0
1 2 0 1 1 2 3 3 2 1 1 2 0 0 0 0 0 0 0 0 0 0 0 0 0 0 0 0 0 0 0 0 0 0 0 0 0 0 0 0 0 0 0
1 1 1 0 1 3 2 0 0 0 0 0 0 0 0 0 0 0 0 0 0 0 0 0 0 0 0 0 0 0 0 0 0 0 0 0 0 0 0 0 0 0 0
1 0 0 0 0 0 0 0 0 0 0 0 0 0 0 0 0 0 0 0 0 0 0 0 0 0 0 0 0 0 0 0 0 0 0 0 0 0 0 0 0 0 0
CIN
-147 -124 -157 -216 -96 -172 -166 -123 -137 -0 -0 -0 -0 -0 -0 -0 -0 -0 -3 -0 -0 -0 -0 -0 -0 -0 -0 -0 -0 -0 -0 -0 -0 -0 -0 -0 -0 -0 -0 -0 -0 -0 -0
-156 -143 -103 -115 -172 -213 -161 -161 -183 -0 -0 -0 -0 -0 -0 -0 -0 -0 -0 -0 -0 -0 -0 -0 -0 -0 -0 -0 -0 -0 -0 -0 -0 -0 -0 -0 -0 -0 -0 -0 -0 -0 -0
-191 -147 -126 -103 -111 -122 -160 -155 -36 -0 -0 -0 -0 -0 -0 -0 -0 -0 -0 -0 -0 -0 -0 -0 -0 -0 -0 -0 -0 -0 -0 -0 -0 -0 -0 -0 -0 -0 -0 -0 -0 -0 -0
-170 -187 -174 -147 -93 -86 -105 -154 -191 -0 -0 -0 -0 -0 -0 -0 -0 -0 -0 -0 -0 -0 -0 -0 -0 -0 -0 -0 -0 -0 -0 -0 -0 -0 -0 -0 -0 -0 -0 -0 -0 -0 -0
-66 -139 -157 -152 -112 -78 -112 -136 -200 -0 -0 -0 -0 -0 -0 -0 -0 -0 -0 -0 -0 -0 -0 -0 -0 -0 -0 -0 -0 -0 -0 -0 -0 -0 -0 -0 -0 -0 -0 -0 -0 -0 -0
-54 -78 -93 -93 -96 -72 -109 -115 -179 -0 -0 -0 -0 -0 -0 -0 -0 -0 -0 -0 -0 -0 -0 -0 -0 -0 -0 -0 -0 -0 -0 -0 -0 -0 -0 -0 -0 -0 -0 -0 -0 -0 -0
-31 -39 -63 -60 -62 -66 -86 -75 -133 -0 -0 -0 -0 -0 -0 -0 -0 -0 -0 -0 -0 -0 -0 -0 -0 -0 -0 -0 -0 -0 -0 -0 -0 -0 -0 -0 -0 -0 -0 -0 -0 -0 -0
-36 -50 -43 -67 -77 -81 -59 -58 -101 -0 -0 -0 -0 -0 -0 -0 -0 -0 -0 -0 -0 -0 -0 -0 -0 -0 -0 -0 -0 -0 -0 -0 -0 -0 -0 -0 -0 -0 -0 -1 -0 -0 -0
-21 -15 -53 -44 -52 -52 -66 -77 -69 -85 -0 -0 -0 -0 -0 -0 -0 -0 -0 -0 -0 -0 -0 -0 -0 -0 -0 -0 -0 -0 -0 -0 -0 -0 -0 -0 -0 -0 -0 -0 -0 -1 -0
-79 -55 -38 -39 -37 -35 -45 -68 -75 -119 -0 -0 -0 -0 -0 -0 -0 -0 -0 -0 -0 -0 -0 -0 -0 -0 -0 -0 -0 -0 -0 -0 -0 -0 -0 -0 -0 -0 -0 -0 -1 -1 -1
-24 -67 -78 -38 -38 -26 -40 -37 -49 -88 -0 -0 -0 -0 -0 -0 -0 -0 -0 -0 -0 -0 -0 -0 -0 -0 -0 -0 -0 -0 -0 -0 -0 -0 -0 -0 -0 -0 -0 -0 -0 -1 -1
-2 -1 -51 -81 -55 -49 -33 -38 -30 -69 -33 -0 -0 -0 -0 -0 -0 -0 -0 -0 -0 -0 -0 -0 -0 -0 -0 -0 -0 -0 -0 -0 -0 -0 -0 -0 -0 -0 -0 -0 -0 -0 -0
-2 -1 -35 -75 -87 -62 -35 -20 -45 -61 -61 -0 -0 -0 -0 -0 -0 -0 -0 -0 -0 -0 -0 -0 -0 -0 -0 -0 -0 -0 -0 -0 -0 -0 -0 -0 -0 -0 -0 -0 -0 -0 -0
-7 -0 -8 -45 -85 -89 -65 -42 -32 -63 -0 -0 -0 -0 -0 -0 -0 -0 -0 -0 -0 -0 -0 -0 -0 -0 -0 -0 -0 -0 -0 -0 -0 -0 -0 -0 -0 -0 -0 -0 -0 -0 -0
-0 -9 -1 -3 -43 -73 -59 -42 -50 -80 -69 -0 -0 -0 -0 -0 -0 -0 -0 -0 -0 -0 -0 -0 -0 -0 -0 -0 -0 -0 -0 -0 -0 -0 -0 -0 -0 -0 -0 -0 -0 -0 -0
-0 -89 -24 -17 -28 -78 -71 -71 -85 -75 -0 -0 -0 -0 -0 -0 -0 -0 -0 -0 -0 -0 -0 -0 -0 -0 -0 -0 -0 -0 -0 -0 -0 -0 -0 -0 -0 -0 -0 -0 -0 -0 -1
-0 -58 -144 -98 -112 -125 -179 -169 -191 -0 -0 -0 -0 -0 -0 -0 -0 -0 -0 -0 -0 -0 -0 -0 -0 -0 -0 -0 -0 -0 -0 -0 -0 -0 -0 -0 -0 -0 -0 -0 -0 -1 -0
-0 -0 -0 -11 -215 -13 -0 -7 -0 -0 -0 -0 -0 -0 -0 -0 -0 -0 -0 -0 -0 -0 -0 -0 -0 -0 -0 -0 -0 -0 -0 -0 -0 -0 -0 -0 -0 -0 -0 -0 -0 -0 -1
-0 -0 -0 -0 -0 -0 -0 -0 -0 -0 -0 -0 -0 -0 -0 -0 -0 -0 -0 -0 -0 -0 -0 -0 -0 -0 -0 -0 -0 -0 -0 -0 -0 -0 -0 -0 -0 -0 -0 -0 -0 -1 -0
-0 -0 -0 -0 -0 -0 -0 -0 -0 -0 -0 -0 -0 -0 -0 -0 -0 -0 -0 -0 -0 -0 -0 -0 -0 -0 -0 -0 -0 -0 -0 -0 -0 -0 -0 -0 -0 -0 -0 -0 -0 -0 -0
-0 -0 -0 -0 -0 -0 -0 -0 -0 -0 -0 -0 -0 -0 -0 -0 -0 -0 -0 -0 -0 -0 -0 -0 -0 -0 -0 -0 -0 -0 -0 -0 -0 -0 -0 -0 -0 -0 -0 -0 -0 -0 -0
-0 -0 -0 -0 -0 -0 -0 -0 -0 -0 -0 -0 -0 -0 -0 -0 -0 -0 -0 -0 -0 -0 -0 -0 -0 -0 -0 -0 -0 -0 -0 -0 -0 -0 -0 -0 -0 -0 -0 -0 -0 -0 -0
-0 -0 -0 -0 -0 -0 -0 -0 -0 -0 -0 -0 -0 -0 -0 -0 -0 -0 -0 -0 -0 -0 -0 -0 -0 -0 -0 -0 -0 -0 -0 -0 -0 -0 -0 -0 -0 -0 -0 -0 -0 -0 -0
-0 -0 -0 -0 -0 -0 -0 -0 -0 -0 -0 -0 -0 -0 -0 -0 -0 -0 -0 -0 -0 -0 -0 -0 -0 -0 -0 -0 -0 -0 -0 -0 -0 -0 -0 -0 -0 -0 -0 -0 -0 -0 -0
-0 -0 -0 -0 -0 -0 -0 -0 -0 -0 -0 -0 -0 -0 -0 -0 -0 -0 -0 -0 -0 -0 -0 -0 -0 -0 -0 -0 -0 -0 -0 -0 -0 -0 -0 -0 -0 -0 -0 -0 -0 -0 -0
-0 -0 -0 -0 -0 -0 -0 -0 -0 -0 -0 -0 -0 -0 -0 -0 -0 -0 -0 -0 -1 -0 -0 -0 -0 -0 -0 -0 -0 -0 -0 -0 -0 -0 -0 -0 -0 -0 -0 -0 -0 -0 -0
Wind_Speed
7 6 6 5 5 6 6 6 8 9 9 10 11 12 12 13 14 14 13 13 11 12 12 12 12 12 13 14 15 16 17 18 18 19 19 20 20 20 20 21 21 21 22
8 8 8 8 8 9 9 8 8 9 10 11 11 11 12 13 13 13 13 12 11 10 10 10 11 11 12 12 13 14 16 17 18 19 19 20 20 21 21 21 21 22 22
11 10 10 11 10 10 10 10 10 10 11 11 11 11 12 12 13 12 12 11 10 10 9 9 10 10 10 11 12 13 15 16 17 18 19 20 20 21 21 22 22 22 23
12 12 13 13 13 12 12 12 13 13 13 12 12 12 12 13 12 12 11 12 10 10 10 9 9 9 9 10 11 12 14 15 16 18 18 19 20 21 21 22 22 23 24
15 15 16 16 15 14 15 15 14 14 15 15 14 13 13 14 13 12 10 11 11 11 10 9 9 9 9 10 10 12 13 15 17 18 18 19 21 21 22 22 23 23 24
17 17 19 18 17 17 16 16 17 17 17 16 16 16 16 16 15 13 12 10 10 10 11 9 10 10 10 10 11 12 14 16 18 20 20 20 21 21 22 23 23 24 25
20 20 20 20 20 20 20 19 19 20 20 18 18 20 20 18 17 16 14 12 11 10 11 11 10 10 11 12 12 14 15 17 19 21 22 22 22 23 24 25 26 26 27
22 23 23 23 22 23 22 21 21 22 22 18 21 21 25 23 20 18 16 14 13 11 12 11 11 12 12 11 12 14 16 18 20 21 22 23 24 25 26 27 28 29 30
28 25 25 25 25 25 25 24 23 23 24 22 20 22 26 28 20 18 19 17 16 13 12 13 12 12 14 15 13 15 16 18 20 20 22 24 25 27 29 30 32 34 35
28 29 29 28 28 28 28 27 26 26 25 26 24 27 28 25 25 26 22 20 19 19 16 16 14 15 14 16 15 17 16 18 20 22 23 25 27 29 31 32 35 36 37
28 29 31 31 32 32 31 31 29 28 28 29 27 28 28 29 29 29 29 25 21 21 19 17 16 16 16 17 18 18 19 20 21 24 25 27 28 31 32 33 37 39 39
30 28 28 30 32 33 35 34 33 32 31 31 30 29 29 30 30 31 32 29 26 24 21 19 18 18 17 18 19 18 19 20 23 27 28 30 31 34 35 36 38 41 41
31 30 30 30 31 32 34 35 34 35 34 33 33 32 31 31 31 31 31 31 31 28 25 24 23 20 20 21 20 21 23 24 26 28 32 32 34 36 38 38 38 41 43
31 31 28 31 33 33 33 33 35 35 34 35 36 36 35 34 33 32 32 32 35 32 29 29 26 24 22 22 23 23 25 26 29 30 33 36 38 38 40 41 41 42 43
31 31 31 30 30 32 34 34 35 35 34 34 35 34 35 34 33 32 32 33 33 38 34 30 32 27 25 24 24 26 30 30 33 35 38 39 39 41 41 43 44 43 43
31 32 32 31 31 30 31 32 34 34 33 33 32 31 31 31 31 31 30 29 29 31 36 30 29 26 25 25 27 31 32 36 37 39 36 37 38 41 42 44 44 43 42
30 31 31 32 32 30 29 29 31 32 34 33 29 27 27 27 27 26 25 27 28 28 32 31 28 27 29 28 31 32 34 35 34 35 36 36 38 38 42 43 43 43 42
27 28 30 32 29 27 27 28 28 28 28 29 28 27 26 25 24 24 25 27 28 28 30 32 32 29 27 29 29 30 32 32 32 34 36 37 38 39 39 41 42 41 41
26 25 26 25 26 25 25 24 23 23 24 24 25 25 24 22 23 23 23 25 26 27 27 30 31 28 29 29 30 28 30 30 32 33 34 35 37 38 40 41 41 41 41
25 25 26 24 20 20 22 23 20 19 19 20 19 19 18 19 19 20 21 22 23 25 26 26 28 28 28 28 28 30 31 29 32 33 34 37 37 37 37 38 39 40 40
24 24 25 23 22 23 19 18 19 17 17 16 15 15 16 16 16 18 19 20 23 24 26 27 28 28 30 28 29 29 33 33 34 35 35 34 34 36 37 37 37 38 37
23 23 24 23 22 21 15 15 16 14 13 12 13 14 15 15 17 18 19 19 21 23 24 26 27 29 30 30 29 32 34 38 41 29 32 36 34 35 34 33 34 35 35
25 26 25 22 24 21 20 19 12 11 11 12 12 14 16 17 18 19 20 21 22 23 24 25 28 30 31 29 30 34 35 34 35 33 32 33 30 32 31 31 34 35 35
25 25 26 25 23 23 21 20 17 15 14 14 16 16 16 17 19 20 22 23 24 24 23 23 24 27 28 29 28 28 28 28 26 26 26 31 30 32 31 30 32 33 32
25 24 24 25 24 23 21 20 19 17 16 17 17 18 18 19 20 22 23 22 23 24 23 24 26 27 27 25 22 22 23 23 26 27 27 29 28 32 33 32 27 28 29
27 26 25 25 24 25 24 22 20 19 20 19 19 20 21 22 22 22 24 25 27 27 27 27 25 23 21 18 16 16 19 21 24 27 21 26 29 33 33 27 27 32 32
Wind_Direction
307 313 319 327 327 328 329 336 335 338 340 343 345 345 347 347 347 346 353 353 358 0 7 11 16 17 16 16 16 16 11 8 6 4 1 360 358 355 351 348 347 345 344
290 296 300 303 307 309 311 314 320 324 326 330 332 336 339 340 341 342 347 350 350 355 0 6 6 7 13 16 14 10 7 5 4 1 358 356 353 352 350 348 345 342 340
282 286 291 295 295 298 300 305 308 313 315 319 321 326 331 334 336 338 337 347 347 344 352 357 356 1 6 9 10 9 5 2 0 359 357 354 350 348 345 344 342 339 337
273 278 284 287 290 290 293 295 298 302 305 308 311 314 320 325 330 332 334 333 339 341 337 340 346 349 357 0 3 3 1 359 356 353 351 350 348 346 344 341 339 337 334
278 279 284 285 283 283 285 288 289 291 295 298 302 305 310 315 319 324 326 326 326 327 333 332 331 334 340 345 348 349 351 350 348 347 345 343 341 341 340 339 336 334 332
275 274 280 281 281 282 280 281 284 285 290 293 297 299 303 307 311 313 314 317 317 316 319 326 320 321 323 328 332 335 337 338 337 337 338 338 337 337 335 335 333 331 329
280 275 276 277 276 276 277 277 281 282 285 288 293 296 298 300 300 302 305 306 307 308 309 311 315 314 314 315 318 322 325 327 328 328 327 329 329 329 328 327 326 325 324
276 276 273 273 272 273 273 272 273 280 281 278 284 291 295 295 293 292 294 296 298 301 299 299 302 305 311 312 310 313 318 320 322 323 323 323 323 322 322 321 320 319 317
279 276 273 273 274 272 271 270 271 270 276 275 271 286 292 292 298 295 286 289 291 292 298 294 296 297 299 305 309 310 312 315 318 321 322 321 320 319 318 317 315 312 311
278 276 276 274 274 274 272 270 269 270 273 274 276 273 283 294 293 295 294 289 289 288 293 291 294 294 298 302 308 309 311 314 317 317 318 318 318 317 315 315 311 309 309
284 280 277 277 274 274 273 271 270 266 266 272 272 279 274 281 286 290 291 292 287 289 290 290 294 295 296 297 301 302 306 310 314 309 315 316 315 315 315 314 310 307 307
291 287 284 280 278 275 274 273 270 268 267 268 273 272 273 276 276 281 284 289 288 290 287 290 291 292 293 296 300 301 305 308 312 307 310 311 312 311 311 312 309 305 304
293 289 287 284 281 280 278 276 272 271 268 269 269 272 274 275 280 278 280 283 286 292 292 291 294 294 293 296 299 300 303 303 308 309 307 311 310 308 308 309 310 306 303
300 298 291 287 284 281 280 278 276 274 271 269 271 271 275 277 279 278 279 281 281 284 288 294 292 293 294 295 298 299 300 299 305 304 306 307 307 307 306 306 307 305 304
306 302 297 294 290 286 282 279 277 275 274 274 274 274 275 278 281 281 281 283 283 286 287 295 297 292 294 298 300 303 302 303 302 302 302 304 306 305 305 305 304 305 303
313 308 304 300 298 294 289 283 279 278 276 277 278 276 278 280 283 285 284 287 290 290 289 298 296 300 298 299 300 302 302 300 302 303 304 305 305 304 305 304 305 305 304
318 312 308 303 299 297 295 291 286 281 278 278 280 279 280 282 285 286 288 292 294 295 291 300 299 299 296 298 300 302 302 304 304 305 305 307 307 307 305 305 305 304 304
328 323 314 306 303 301 298 295 291 288 283 281 281 281 282 285 286 289 292 293 294 299 297 297 300 301 302 303 307 308 306 306 306 307 307 307 308 308 308 307 306 305 304
339 336 329 319 310 308 304 301 297 296 292 288 286 285 285 285 287 291 295 298 300 303 303 303 302 305 305 308 309 312 310 309 308 309 310 310 310 309 308 306 307 306 305
348 347 340 336 331 319 308 302 304 304 304 299 295 293 293 294 294 297 301 305 306 306 307 310 307 308 309 311 312 312 312 314 314 315 314 312 311 311 311 311 309 308 307
7 355 355 341 341 329 315 312 300 304 307 307 304 304 305 307 308 310 307 310 311 311 307 309 310 311 311 312 311 315 313 315 316 316 315 316 316 315 314 313 312 311 310
25 20 4 13 358 8 8 327 312 312 312 307 311 315 319 322 321 320 317 320 316 314 312 313 314 312 312 313 317 315 316 314 314 322 320 316 317 318 318 318 317 315 315
28 28 18 11 14 20 15 3 358 347 323 317 325 326 325 325 325 325 323 321 320 319 319 319 314 313 316 320 319 316 315 315 315 318 321 320 325 322 324 324 321 319 318
38 42 35 30 25 17 12 24 18 360 340 346 348 333 341 332 328 329 326 325 321 322 324 324 322 321 321 321 320 320 321 321 323 325 329 323 328 326 328 328 326 324 323
39 43 40 37 31 25 18 12 10 17 15 5 2 354 347 340 335 332 329 331 331 329 329 328 326 323 322 323 326 328 326 328 328 329 331 328 333 331 331 329 334 332 329
45 48 45 44 43 39 33 25 11 10 1 360 354 348 343 341 341 340 335 331 328 330 331 331 332 333 334 336 338 336 332 330 331 333 346 338 336 336 336 341 339 331 327